QPF
0.18 0.26 0.23 0.20 0.15 0.13 0.14 0.11 0.10 0.11 0.12 0.10 0.10 0.11 0.11 0.13 0.19 0.14 0.06 0.07 0.08 0.10 0.11 0.11 0.11 0.11 0.10 0.09 0.08 0.07 0.05 0.03 0.03 0.03 0.04 0.04 0.06 0.08 0.09 0.09 0.09 0.10 0.07
0.24 0.28 0.21 0.20 0.16 0.13 0.12 0.09 0.10 0.12 0.14 0.12 0.15 0.12 0.10 0.10 0.13 0.08 0.06 0.08 0.07 0.08 0.09 0.09 0.10 0.11 0.11 0.10 0.07 0.05 0.03 0.02 0.03 0.04 0.05 0.07 0.09 0.08 0.09 0.10 0.10 0.09 0.07
0.24 0.22 0.16 0.17 0.13 0.10 0.09 0.09 0.09 0.11 0.14 0.14 0.12 0.10 0.09 0.09 0.07 0.06 0.07 0.07 0.07 0.08 0.08 0.09 0.10 0.11 0.11 0.08 0.06 0.04 0.04 0.05 0.06 0.06 0.07 0.07 0.07 0.06 0.07 0.08 0.07 0.07 0.07
0.17 0.15 0.12 0.14 0.14 0.13 0.09 0.08 0.09 0.11 0.14 0.13 0.09 0.09 0.08 0.07 0.07 0.08 0.08 0.08 0.08 0.10 0.09 0.11 0.11 0.11 0.08 0.06 0.05 0.05 0.05 0.06 0.07 0.06 0.05 0.05 0.05 0.06 0.07 0.06 0.05 0.05 0.05
0.14 0.12 0.12 0.12 0.10 0.11 0.09 0.08 0.08 0.12 0.15 0.12 0.08 0.08 0.07 0.05 0.07 0.08 0.11 0.13 0.12 0.12 0.14 0.14 0.13 0.11 0.06 0.05 0.04 0.05 0.05 0.05 0.05 0.04 0.04 0.05 0.05 0.07 0.07 0.06 0.05 0.05 0.05
0.11 0.12 0.10 0.08 0.07 0.09 0.09 0.08 0.08 0.10 0.17 0.15 0.09 0.08 0.07 0.07 0.08 0.09 0.12 0.15 0.16 0.18 0.20 0.16 0.13 0.09 0.06 0.05 0.05 0.06 0.04 0.04 0.03 0.04 0.07 0.06 0.05 0.06 0.06 0.07 0.06 0.05 0.05
0.07 0.09 0.07 0.07 0.07 0.08 0.09 0.08 0.08 0.11 0.20 0.19 0.12 0.10 0.09 0.09 0.10 0.11 0.12 0.17 0.21 0.19 0.16 0.13 0.10 0.08 0.06 0.06 0.07 0.07 0.06 0.05 0.03 0.05 0.08 0.07 0.05 0.06 0.06 0.06 0.05 0.04 0.03
0.05 0.05 0.05 0.06 0.07 0.09 0.11 0.10 0.11 0.19 0.24 0.21 0.15 0.12 0.11 0.11 0.11 0.11 0.11 0.12 0.15 0.14 0.12 0.12 0.11 0.10 0.08 0.07 0.07 0.08 0.09 0.06 0.04 0.05 0.07 0.06 0.05 0.06 0.05 0.05 0.04 0.02 0.03
0.04 0.04 0.04 0.05 0.07 0.11 0.13 0.14 0.17 0.26 0.25 0.25 0.24 0.17 0.13 0.11 0.10 0.09 0.09 0.11 0.14 0.15 0.13 0.12 0.12 0.09 0.07 0.06 0.06 0.08 0.08 0.06 0.04 0.06 0.06 0.06 0.06 0.05 0.04 0.03 0.02 0.02 0.02
0.03 0.03 0.03 0.04 0.05 0.06 0.09 0.17 0.24 0.26 0.25 0.27 0.27 0.23 0.17 0.13 0.09 0.08 0.09 0.13 0.15 0.14 0.13 0.11 0.10 0.06 0.05 0.06 0.07 0.08 0.08 0.06 0.05 0.05 0.06 0.06 0.05 0.04 0.04 0.04 0.03 0.02 0.03
0.02 0.02 0.02 0.03 0.04 0.09 0.19 0.28 0.26 0.25 0.27 0.27 0.31 0.30 0.22 0.17 0.12 0.11 0.13 0.16 0.16 0.15 0.11 0.08 0.07 0.06 0.06 0.07 0.06 0.05 0.05 0.03 0.03 0.04 0.05 0.04 0.04 0.04 0.05 0.06 0.06 0.04 0.04
0.03 0.02 0.02 0.03 0.07 0.14 0.19 0.18 0.16 0.17 0.19 0.20 0.20 0.19 0.19 0.19 0.18 0.15 0.15 0.18 0.18 0.16 0.12 0.09 0.07 0.05 0.05 0.05 0.06 0.04 0.03 0.02 0.01 0.02 0.03 0.03 0.03 0.05 0.05 0.04 0.04 0.06 0.06
0.03 0.02 0.02 0.03 0.07 0.10 0.09 0.07 0.09 0.11 0.13 0.12 0.13 0.14 0.15 0.14 0.15 0.13 0.12 0.13 0.15 0.12 0.09 0.07 0.05 0.04 0.04 0.04 0.04 0.03 0.02 0.02 0.03 0.02 0.03 0.02 0.02 0.03 0.05 0.05 0.05 0.06 0.07
0.04 0.03 0.04 0.03 0.05 0.05 0.05 0.06 0.06 0.07 0.08 0.09 0.11 0.10 0.11 0.11 0.11 0.08 0.08 0.09 0.10 0.09 0.08 0.06 0.05 0.05 0.06 0.05 0.05 0.04 0.03 0.05 0.05 0.06 0.06 0.03 0.03 0.04 0.06 0.08 0.08 0.08 0.07
0.03 0.03 0.03 0.04 0.04 0.05 0.08 0.09 0.05 0.06 0.06 0.06 0.07 0.06 0.06 0.08 0.08 0.06 0.06 0.07 0.06 0.06 0.06 0.08 0.08 0.07 0.08 0.09 0.08 0.07 0.07 0.06 0.05 0.07 0.06 0.03 0.04 0.05 0.07 0.10 0.12 0.12 0.11
0.02 0.02 0.02 0.03 0.04 0.06 0.08 0.07 0.06 0.06 0.06 0.05 0.05 0.05 0.04 0.06 0.06 0.05 0.06 0.05 0.05 0.06 0.06 0.08 0.08 0.08 0.07 0.07 0.07 0.05 0.04 0.05 0.05 0.05 0.05 0.05 0.04 0.06 0.07 0.08 0.11 0.13 0.12
0.02 0.02 0.03 0.03 0.04 0.05 0.05 0.04 0.05 0.06 0.06 0.06 0.06 0.05 0.04 0.05 0.06 0.07 0.06 0.05 0.04 0.05 0.08 0.07 0.07 0.07 0.07 0.06 0.07 0.07 0.05 0.06 0.06 0.06 0.07 0.09 0.10 0.07 0.06 0.07 0.09 0.10 0.10
0.01 0.02 0.02 0.02 0.02 0.03 0.04 0.04 0.04 0.06 0.07 0.08 0.07 0.05 0.03 0.03 0.05 0.06 0.06 0.05 0.05 0.06 0.08 0.08 0.06 0.07 0.07 0.07 0.06 0.04 0.03 0.05 0.05 0.06 0.07 0.08 0.09 0.08 0.07 0.05 0.06 0.08 0.12
0.01 0.01 0.01 0.01 0.01 0.02 0.04 0.04 0.04 0.05 0.06 0.07 0.06 0.05 0.04 0.05 0.05 0.07 0.06 0.04 0.04 0.04 0.06 0.05 0.07 0.05 0.05 0.05 0.03 0.04 0.04 0.05 0.06 0.05 0.05 0.04 0.04 0.06 0.07 0.05 0.04 0.07 0.13
0.00 0.01 0.01 0.01 0.02 0.03 0.04 0.04 0.04 0.05 0.05 0.04 0.05 0.05 0.05 0.05 0.04 0.05 0.05 0.04 0.04 0.04 0.05 0.05 0.07 0.06 0.05 0.05 0.03 0.03 0.04 0.04 0.04 0.05 0.05 0.05 0.04 0.04 0.04 0.06 0.08 0.06 0.05
0.00 0.00 0.01 0.01 0.02 0.04 0.05 0.04 0.05 0.07 0.04 0.04 0.04 0.05 0.05 0.03 0.03 0.05 0.05 0.06 0.05 0.06 0.06 0.05 0.06 0.05 0.05 0.05 0.04 0.05 0.05 0.03 0.03 0.03 0.04 0.05 0.05 0.05 0.04 0.06 0.06 0.04 0.05
0.00 0.00 0.01 0.01 0.01 0.02 0.03 0.03 0.04 0.04 0.03 0.05 0.05 0.05 0.04 0.04 0.05 0.04 0.06 0.05 0.05 0.05 0.04 0.04 0.05 0.06 0.04 0.03 0.05 0.08 0.07 0.04 0.03 0.02 0.03 0.04 0.05 0.04 0.03 0.03 0.03 0.04 0.03
0.00 0.00 0.00 0.00 0.01 0.01 0.02 0.03 0.03 0.02 0.03 0.04 0.04 0.04 0.04 0.04 0.05 0.05 0.05 0.05 0.05 0.04 0.04 0.04 0.04 0.05 0.05 0.04 0.06 0.10 0.09 0.08 0.06 0.04 0.02 0.03 0.05 0.04 0.05 0.04 0.03 0.03 0.03
0.00 0.00 0.00 0.00 0.01 0.01 0.02 0.04 0.04 0.03 0.03 0.05 0.05 0.05 0.04 0.04 0.04 0.04 0.04 0.04 0.04 0.04 0.05 0.04 0.03 0.03 0.06 0.06 0.06 0.08 0.08 0.10 0.08 0.04 0.03 0.03 0.04 0.03 0.04 0.03 0.02 0.02 0.03
0.00 0.00 0.00 0.00 0.01 0.01 0.02 0.03 0.04 0.03 0.03 0.03 0.03 0.04 0.04 0.03 0.03 0.02 0.03 0.03 0.03 0.04 0.04 0.04 0.04 0.04 0.06 0.06 0.06 0.06 0.06 0.06 0.07 0.05 0.04 0.04 0.04 0.03 0.03 0.02 0.02 0.02 0.02
0.00 0.00 0.00 0.00 0.00 0.01 0.01 0.03 0.03 0.04 0.03 0.03 0.02 0.03 0.02 0.02 0.02 0.01 0.02 0.03 0.03 0.04 0.05 0.04 0.03 0.04 0.05 0.05 0.06 0.08 0.08 0.08 0.07 0.06 0.06 0.06 0.05 0.03 0.02 0.02 0.02 0.03 0.04
MSLP
1012.85 1012.64 1012.54 1012.56 1012.65 1012.74 1012.75 1012.65 1012.42 1012.06 1011.62 1011.16 1010.74 1010.41 1010.16 1009.99 1009.86 1009.74 1009.59 1009.41 1009.22 1009.04 1008.91 1008.87 1008.92 1009.07 1009.30 1009.56 1009.83 1010.09 1010.32 1010.55 1010.78 1011.03 1011.33 1011.67 1012.03 1012.41 1012.78 1013.12 1013.45 1013.75 1014.04
1013.04 1012.85 1012.77 1012.80 1012.91 1013.00 1013.04 1012.96 1012.75 1012.43 1012.03 1011.63 1011.27 1010.98 1010.78 1010.64 1010.53 1010.43 1010.29 1010.12 1009.94 1009.78 1009.67 1009.65 1009.72 1009.87 1010.07 1010.29 1010.49 1010.67 1010.83 1010.98 1011.16 1011.39 1011.68 1012.03 1012.43 1012.83 1013.23 1013.59 1013.91 1014.20 1014.47
1013.19 1013.02 1012.96 1013.01 1013.12 1013.24 1013.30 1013.25 1013.08 1012.81 1012.47 1012.12 1011.82 1011.59 1011.43 1011.32 1011.22 1011.11 1010.97 1010.79 1010.61 1010.46 1010.37 1010.36 1010.44 1010.59 1010.77 1010.95 1011.10 1011.22 1011.31 1011.41 1011.55 1011.76 1012.05 1012.42 1012.83 1013.25 1013.66 1014.02 1014.33 1014.61 1014.86
1013.27 1013.12 1013.08 1013.16 1013.30 1013.45 1013.54 1013.53 1013.42 1013.20 1012.92 1012.64 1012.40 1012.21 1012.08 1011.99 1011.91 1011.79 1011.64 1011.46 1011.28 1011.13 1011.05 1011.06 1011.15 1011.29 1011.46 1011.60 1011.71 1011.77 1011.80 1011.85 1011.96 1012.15 1012.43 1012.80 1013.22 1013.65 1014.05 1014.41 1014.71 1014.97 1015.21
1013.29 1013.16 1013.15 1013.25 1013.43 1013.62 1013.76 1013.80 1013.74 1013.58 1013.36 1013.14 1012.94 1012.80 1012.70 1012.63 1012.54 1012.43 1012.28 1012.10 1011.93 1011.80 1011.74 1011.77 1011.87 1012.01 1012.15 1012.26 1012.31 1012.31 1012.29 1012.29 1012.36 1012.52 1012.79 1013.16 1013.58 1014.01 1014.41 1014.75 1015.04 1015.29 1015.53
1013.27 1013.16 1013.18 1013.32 1013.53 1013.76 1013.95 1014.04 1014.02 1013.91 1013.75 1013.57 1013.42 1013.31 1013.23 1013.17 1013.10 1012.99 1012.85 1012.69 1012.54 1012.43 1012.40 1012.45 1012.56 1012.70 1012.82 1012.89 1012.88 1012.83 1012.75 1012.70 1012.73 1012.87 1013.13 1013.48 1013.90 1014.33 1014.73 1015.07 1015.35 1015.59 1015.82
1013.25 1013.16 1013.20 1013.37 1013.62 1013.88 1014.10 1014.22 1014.24 1014.17 1014.04 1013.89 1013.77 1013.69 1013.63 1013.59 1013.53 1013.44 1013.31 1013.18 1013.06 1012.99 1012.99 1013.06 1013.18 1013.31 1013.40 1013.43 1013.37 1013.26 1013.13 1013.03 1013.03 1013.15 1013.41 1013.77 1014.20 1014.63 1015.03 1015.37 1015.64 1015.87 1016.09
1013.27 1013.19 1013.25 1013.45 1013.72 1013.99 1014.22 1014.35 1014.39 1014.33 1014.21 1014.09 1013.99 1013.92 1013.89 1013.86 1013.81 1013.74 1013.64 1013.53 1013.44 1013.41 1013.44 1013.53 1013.65 1013.77 1013.84 1013.82 1013.72 1013.55 1013.38 1013.26 1013.24 1013.36 1013.63 1014.01 1014.46 1014.92 1015.33 1015.67 1015.94 1016.16 1016.37
1013.36 1013.29 1013.37 1013.56 1013.83 1014.10 1014.32 1014.43 1014.45 1014.39 1014.28 1014.17 1014.08 1014.03 1014.01 1013.99 1013.97 1013.91 1013.83 1013.74 1013.68 1013.66 1013.71 1013.81 1013.93 1014.03 1014.07 1014.03 1013.89 1013.70 1013.50 1013.36 1013.35 1013.49 1013.79 1014.22 1014.71 1015.20 1015.64 1015.99 1016.26 1016.46 1016.64
1013.53 1013.47 1013.55 1013.74 1013.99 1014.23 1014.40 1014.48 1014.47 1014.39 1014.27 1014.16 1014.08 1014.05 1014.04 1014.05 1014.03 1013.99 1013.92 1013.84 1013.78 1013.76 1013.81 1013.90 1014.01 1014.10 1014.12 1014.05 1013.90 1013.70 1013.50 1013.38 1013.39 1013.57 1013.91 1014.39 1014.93 1015.46 1015.94 1016.31 1016.57 1016.76 1016.90
1013.76 1013.72 1013.80 1013.97 1014.18 1014.37 1014.50 1014.53 1014.47 1014.36 1014.23 1014.12 1014.06 1014.04 1014.06 1014.08 1014.07 1014.03 1013.95 1013.86 1013.79 1013.76 1013.78 1013.85 1013.95 1014.01 1014.02 1013.94 1013.79 1013.59 1013.42 1013.32 1013.37 1013.60 1013.99 1014.52 1015.11 1015.69 1016.20 1016.59 1016.86 1017.02 1017.12
1014.03 1014.01 1014.09 1014.24 1014.42 1014.55 1014.62 1014.59 1014.49 1014.35 1014.21 1014.11 1014.06 1014.06 1014.10 1014.13 1014.12 1014.07 1013.98 1013.86 1013.76 1013.69 1013.69 1013.73 1013.79 1013.84 1013.84 1013.76 1013.62 1013.45 1013.30 1013.24 1013.33 1013.59 1014.03 1014.59 1015.22 1015.84 1016.37 1016.78 1017.06 1017.21 1017.29
1014.29 1014.30 1014.39 1014.53 1014.67 1014.76 1014.76 1014.69 1014.55 1014.38 1014.24 1014.14 1014.11 1014.14 1014.19 1014.23 1014.22 1014.16 1014.04 1013.89 1013.75 1013.64 1013.59 1013.59 1013.63 1013.66 1013.65 1013.58 1013.45 1013.31 1013.19 1013.15 1013.26 1013.55 1014.00 1014.58 1015.23 1015.86 1016.41 1016.84 1017.12 1017.27 1017.34
1014.52 1014.56 1014.67 1014.80 1014.92 1014.97 1014.94 1014.82 1014.65 1014.48 1014.33 1014.24 1014.22 1014.26 1014.32 1014.37 1014.36 1014.29 1014.14 1013.96 1013.78 1013.63 1013.54 1013.50 1013.50 1013.52 1013.50 1013.43 1013.32 1013.20 1013.09 1013.07 1013.18 1013.46 1013.89 1014.46 1015.08 1015.71 1016.26 1016.70 1016.99 1017.17 1017.25
1014.67 1014.76 1014.89 1015.04 1015.14 1015.17 1015.11 1014.98 1014.80 1014.61 1014.46 1014.38 1014.37 1014.41 1014.48 1014.52 1014.51 1014.43 1014.27 1014.07 1013.86 1013.68 1013.55 1013.48 1013.46 1013.45 1013.42 1013.35 1013.25 1013.13 1013.02 1012.99 1013.08 1013.31 1013.70 1014.21 1014.79 1015.37 1015.91 1016.34 1016.66 1016.86 1016.99
1014.76 1014.89 1015.05 1015.21 1015.32 1015.34 1015.28 1015.14 1014.95 1014.76 1014.60 1014.52 1014.50 1014.54 1014.60 1014.64 1014.62 1014.54 1014.38 1014.18 1013.97 1013.78 1013.63 1013.54 1013.48 1013.45 1013.41 1013.33 1013.22 1013.09 1012.97 1012.91 1012.95 1013.11 1013.42 1013.84 1014.34 1014.87 1015.36 1015.79 1016.12 1016.36 1016.54
1014.80 1014.96 1015.15 1015.32 1015.44 1015.47 1015.41 1015.28 1015.09 1014.90 1014.73 1014.63 1014.59 1014.61 1014.65 1014.68 1014.66 1014.59 1014.45 1014.28 1014.08 1013.90 1013.75 1013.64 1013.57 1013.52 1013.45 1013.36 1013.23 1013.08 1012.93 1012.83 1012.80 1012.89 1013.10 1013.42 1013.82 1014.26 1014.69 1015.09 1015.43 1015.71 1015.94
1014.80 1014.99 1015.20 1015.38 1015.51 1015.55 1015.51 1015.38 1015.20 1015.01 1014.83 1014.70 1014.63 1014.61 1014.62 1014.64 1014.63 1014.58 1014.48 1014.34 1014.19 1014.03 1013.90 1013.79 1013.71 1013.63 1013.53 1013.41 1013.26 1013.09 1012.91 1012.76 1012.68 1012.69 1012.80 1013.00 1013.29 1013.63 1013.99 1014.35 1014.68 1014.98 1015.25
1014.80 1015.00 1015.20 1015.39 1015.52 1015.58 1015.56 1015.45 1015.29 1015.09 1014.91 1014.75 1014.64 1014.57 1014.55 1014.55 1014.54 1014.52 1014.47 1014.39 1014.29 1014.19 1014.08 1013.98 1013.88 1013.77 1013.65 1013.50 1013.32 1013.13 1012.93 1012.75 1012.62 1012.56 1012.58 1012.68 1012.86 1013.10 1013.37 1013.66 1013.96 1014.26 1014.56
1014.79 1014.99 1015.19 1015.36 1015.50 1015.57 1015.57 1015.49 1015.35 1015.17 1014.97 1014.79 1014.64 1014.53 1014.47 1014.45 1014.45 1014.47 1014.47 1014.46 1014.43 1014.37 1014.30 1014.21 1014.10 1013.96 1013.81 1013.63 1013.43 1013.22 1013.01 1012.82 1012.67 1012.56 1012.52 1012.53 1012.61 1012.74 1012.91 1013.12 1013.37 1013.64 1013.93
1014.78 1014.96 1015.14 1015.30 1015.43 1015.51 1015.54 1015.50 1015.40 1015.24 1015.05 1014.85 1014.67 1014.53 1014.44 1014.41 1014.42 1014.46 1014.52 1014.58 1014.61 1014.61 1014.57 1014.48 1014.36 1014.20 1014.01 1013.81 1013.60 1013.39 1013.18 1013.00 1012.85 1012.72 1012.64 1012.59 1012.57 1012.60 1012.68 1012.80 1012.97 1013.18 1013.44
1014.72 1014.89 1015.04 1015.18 1015.31 1015.41 1015.48 1015.49 1015.43 1015.32 1015.16 1014.97 1014.78 1014.62 1014.51 1014.46 1014.48 1014.55 1014.65 1014.76 1014.85 1014.89 1014.88 1014.80 1014.67 1014.48 1014.27 1014.05 1013.83 1013.63 1013.45 1013.30 1013.16 1013.04 1012.93 1012.84 1012.76 1012.70 1012.67 1012.70 1012.78 1012.93 1013.13
1014.60 1014.76 1014.88 1015.01 1015.14 1015.26 1015.37 1015.44 1015.46 1015.41 1015.29 1015.13 1014.95 1014.78 1014.65 1014.60 1014.62 1014.71 1014.84 1014.99 1015.12 1015.20 1015.21 1015.14 1014.99 1014.80 1014.57 1014.33 1014.12 1013.94 1013.79 1013.67 1013.56 1013.47 1013.35 1013.23 1013.10 1012.96 1012.86 1012.79 1012.79 1012.86 1013.00
1014.39 1014.55 1014.66 1014.78 1014.91 1015.07 1015.22 1015.36 1015.45 1015.47 1015.42 1015.30 1015.15 1014.98 1014.85 1014.79 1014.80 1014.90 1015.05 1015.22 1015.38 1015.48 1015.51 1015.45 1015.30 1015.10 1014.86 1014.63 1014.42 1014.26 1014.15 1014.06 1013.99 1013.92 1013.81 1013.67 1013.50 1013.31 1013.13 1012.99 1012.91 1012.91 1013.00
1014.11 1014.27 1014.38 1014.50 1014.65 1014.83 1015.04 1015.24 1015.41 1015.51 1015.52 1015.45 1015.33 1015.18 1015.05 1014.97 1014.97 1015.06 1015.21 1015.39 1015.56 1015.68 1015.72 1015.67 1015.54 1015.34 1015.11 1014.89 1014.70 1014.56 1014.47 1014.42 1014.37 1014.32 1014.22 1014.06 1013.86 1013.63 1013.40 1013.20 1013.06 1013.02 1013.07
1013.76 1013.95 1014.08 1014.21 1014.37 1014.58 1014.83 1015.09 1015.32 1015.49 1015.56 1015.55 1015.45 1015.32 1015.18 1015.09 1015.07 1015.14 1015.27 1015.45 1015.62 1015.75 1015.81 1015.78 1015.67 1015.49 1015.28 1015.08 1014.91 1014.79 1014.72 1014.68 1014.65 1014.59 1014.49 1014.32 1014.10 1013.84 1013.57 1013.33 1013.16 1013.08 1013.11
Thickness
5772 5773 5768 5769 5770 5771 5771 5772 5773 5775 5776 5777 5778 5778 5778 5778 5777 5777 5778 5777 5776 5775 5775 5775 5774 5773 5772 5772 5771 5769 5768 5767 5765 5763 5762 5760 5758 5757 5755 5754 5754 5753 5749
5774 5773 5768 5768 5769 5770 5770 5770 5772 5773 5775 5776 5776 5777 5777 5777 5777 5777 5777 5776 5775 5775 5774 5774 5773 5772 5771 5771 5770 5768 5767 5765 5763 5762 5761 5759 5757 5755 5754 5754 5754 5752 5748
5775 5773 5769 5767 5768 5768 5769 5769 5770 5771 5773 5774 5775 5775 5776 5776 5776 5776 5776 5775 5774 5774 5773 5773 5772 5771 5770 5769 5768 5767 5766 5764 5763 5762 5762 5762 5758 5755 5753 5752 5751 5749 5747
5774 5773 5770 5766 5766 5767 5767 5768 5768 5770 5771 5773 5774 5774 5775 5775 5775 5775 5774 5773 5772 5772 5772 5772 5771 5770 5769 5768 5767 5766 5765 5763 5762 5763 5765 5764 5760 5754 5752 5751 5749 5747 5745
5773 5772 5768 5765 5765 5765 5766 5766 5767 5768 5770 5772 5772 5773 5773 5773 5773 5773 5772 5771 5771 5771 5770 5770 5770 5769 5768 5767 5766 5765 5764 5763 5763 5764 5765 5763 5759 5753 5751 5749 5748 5746 5744
5774 5773 5767 5764 5764 5764 5765 5766 5767 5767 5769 5770 5771 5771 5771 5771 5771 5771 5770 5769 5769 5768 5768 5768 5768 5767 5767 5766 5765 5764 5763 5764 5764 5766 5763 5762 5758 5752 5750 5749 5747 5745 5743
5775 5773 5769 5763 5763 5764 5764 5765 5766 5766 5768 5769 5769 5769 5769 5769 5768 5768 5768 5767 5767 5766 5766 5766 5766 5766 5765 5765 5764 5763 5763 5764 5768 5766 5762 5761 5757 5752 5749 5748 5746 5744 5742
5776 5774 5769 5764 5763 5763 5764 5764 5765 5765 5766 5766 5766 5767 5767 5767 5766 5766 5765 5765 5764 5764 5764 5764 5764 5764 5764 5763 5762 5761 5762 5764 5766 5766 5763 5760 5754 5751 5749 5747 5746 5744 5742
5776 5775 5772 5770 5765 5763 5763 5763 5763 5763 5764 5764 5764 5765 5765 5765 5764 5764 5764 5763 5763 5763 5762 5762 5763 5762 5762 5762 5761 5760 5761 5763 5767 5765 5763 5759 5753 5750 5748 5746 5745 5743 5742
5776 5775 5772 5772 5769 5768 5765 5762 5762 5762 5762 5762 5762 5763 5763 5763 5762 5762 5762 5762 5761 5761 5761 5761 5761 5761 5761 5760 5760 5760 5760 5762 5767 5766 5763 5757 5752 5750 5748 5746 5744 5742 5741
5773 5774 5774 5773 5770 5769 5767 5764 5763 5761 5761 5762 5761 5761 5762 5764 5764 5762 5761 5760 5760 5759 5759 5759 5759 5759 5760 5760 5759 5760 5761 5766 5767 5766 5761 5755 5752 5749 5747 5745 5743 5742 5741
5770 5773 5773 5772 5769 5769 5767 5765 5765 5765 5763 5763 5762 5762 5763 5761 5762 5762 5759 5759 5759 5758 5758 5758 5759 5760 5761 5764 5761 5761 5765 5766 5766 5764 5759 5753 5751 5749 5747 5745 5743 5742 5741
5773 5773 5773 5771 5769 5769 5767 5766 5765 5764 5763 5763 5762 5762 5761 5761 5761 5761 5760 5759 5759 5759 5760 5759 5761 5764 5765 5764 5764 5765 5765 5766 5765 5763 5758 5753 5750 5748 5746 5745 5744 5742 5741
5774 5773 5774 5772 5769 5767 5767 5766 5765 5765 5764 5764 5761 5761 5762 5761 5760 5760 5760 5761 5761 5761 5761 5762 5762 5763 5763 5763 5762 5763 5763 5763 5762 5760 5755 5751 5749 5748 5746 5745 5744 5743 5741
5774 5774 5773 5771 5768 5766 5765 5765 5766 5764 5764 5763 5761 5761 5760 5761 5761 5761 5759 5759 5761 5761 5762 5761 5761 5761 5761 5761 5762 5762 5761 5760 5759 5758 5755 5751 5749 5747 5746 5745 5744 5743 5741
5777 5776 5776 5772 5769 5767 5765 5764 5764 5764 5763 5764 5763 5761 5760 5761 5761 5760 5760 5760 5761 5761 5762 5761 5760 5760 5760 5761 5761 5760 5759 5759 5756 5755 5754 5751 5748 5746 5745 5745 5744 5742 5741
5780 5779 5776 5774 5772 5769 5767 5766 5767 5766 5765 5764 5763 5761 5761 5761 5761 5761 5762 5761 5761 5760 5760 5760 5760 5760 5760 5760 5759 5759 5758 5757 5756 5754 5753 5752 5749 5746 5744 5743 5742 5742 5741
5784 5780 5778 5779 5774 5770 5768 5767 5768 5767 5766 5764 5763 5763 5762 5761 5761 5761 5763 5763 5761 5761 5761 5761 5761 5760 5759 5759 5758 5758 5757 5755 5754 5753 5752 5750 5749 5748 5743 5741 5740 5740 5739
5785 5782 5779 5778 5775 5773 5770 5769 5769 5767 5766 5765 5764 5764 5763 5762 5762 5763 5764 5762 5762 5763 5763 5763 5762 5761 5758 5757 5757 5756 5757 5755 5753 5752 5750 5749 5747 5746 5744 5740 5738 5737 5736
5789 5785 5781 5778 5776 5774 5772 5770 5770 5769 5768 5767 5766 5764 5764 5764 5764 5764 5765 5763 5764 5764 5763 5762 5759 5758 5758 5757 5758 5755 5754 5753 5752 5750 5749 5747 5745 5744 5743 5741 5738 5736 5734
5791 5787 5783 5780 5777 5775 5773 5772 5769 5769 5769 5769 5768 5765 5765 5765 5764 5764 5766 5764 5764 5764 5762 5762 5760 5758 5757 5756 5754 5750 5750 5750 5749 5747 5746 5745 5743 5741 5740 5738 5737 5735 5733
5793 5789 5786 5782 5780 5778 5775 5774 5772 5771 5771 5770 5769 5766 5765 5765 5764 5766 5764 5765 5764 5762 5761 5760 5759 5758 5758 5758 5754 5748 5743 5742 5743 5745 5743 5741 5740 5739 5737 5736 5733 5732 5731
5797 5793 5791 5786 5783 5780 5778 5777 5774 5771 5771 5770 5768 5767 5766 5765 5765 5764 5765 5765 5764 5764 5762 5760 5758 5756 5755 5756 5757 5752 5746 5740 5738 5739 5738 5738 5737 5735 5734 5732 5731 5729 5728
5802 5800 5795 5789 5785 5782 5780 5778 5775 5771 5770 5769 5769 5768 5767 5765 5765 5765 5765 5764 5764 5765 5762 5761 5761 5759 5755 5754 5754 5754 5753 5749 5741 5734 5734 5735 5734 5732 5730 5730 5728 5726 5724
5809 5804 5799 5793 5788 5785 5782 5779 5776 5774 5773 5772 5770 5767 5766 5766 5765 5765 5764 5764 5763 5763 5762 5760 5759 5758 5757 5755 5754 5752 5749 5748 5746 5739 5731 5731 5731 5730 5728 5726 5725 5723 5721
5812 5807 5802 5795 5790 5787 5784 5781 5778 5775 5773 5771 5768 5767 5767 5768 5767 5765 5764 5763 5763 5763 5761 5759 5758 5758 5756 5754 5753 5752 5749 5746 5744 5741 5735 5731 5728 5727 5725 5723 5722 5720 5717